SES-1                   
1 36516U 10016A   19260.54524227 -.00000119  00000-0  00000+0 0  9999
2 36516   0.0228 271.3490 0002613 267.6717 272.4540  1.00271769 34429
BREEZE M R/B            
1 36517U 10016B   19259.54545161 -.00000131  00000-0  00000-0 0  9993
2 36517   5.6615  41.0598 0683851 130.4013 257.4310  1.20449969 41222